Time,TemperatureF,DewpointF,PressureIn,WindDirection,WindDirectionDegrees,WindSpeedMPH,WindSpeedGustMPH,Humidity,HourlyPrecipIn,Conditions,Clouds,dailyrainin,SolarRadiationWatts/m^2,SoftwareType,DateUTC
2013-03-09 00:05:00,38.4,30.0,30.19,NNE,20,4.0,-999.0,73,-99.99,,,0.25,0,weatherlink.com 1.10,2013-03-09 05:05:00,
2013-03-09 00:20:00,37.8,30.0,30.19,NW,306,2.0,-999.0,73,-99.99,,,0.25,0,weatherlink.com 1.10,2013-03-09 05:20:00,
2013-03-09 00:35:00,37.7,30.0,30.19,North,11,0.0,-999.0,73,-99.99,,,0.25,0,weatherlink.com 1.10,2013-03-09 05:35:00,
2013-03-09 00:50:00,37.5,30.0,30.19,WNW,300,5.0,-999.0,73,-99.99,,,0.25,0,weatherlink.com 1.10,2013-03-09 05:50:00,
2013-03-09 01:05:00,37.0,29.0,30.19,NNW,345,4.0,-999.0,74,-99.99,,,0.25,0,weatherlink.com 1.10,2013-03-09 06:05:00,
2013-03-09 01:20:00,36.9,29.0,30.19,NNW,336,1.0,-999.0,74,-99.99,,,0.25,0,weatherlink.com 1.10,2013-03-09 06:20:00,
2013-03-09 01:35:00,36.5,29.0,30.20,North,11,0.0,-999.0,75,-99.99,,,0.25,0,weatherlink.com 1.10,2013-03-09 06:35:00,
2013-03-09 02:05:00,35.8,29.0,30.19,NNW,346,2.0,-999.0,75,-99.99,,,0.00,0,weatherlink.com 1.10,2013-03-09 07:05:00,
2013-03-09 02:20:00,35.4,29.0,30.19,North,355,3.0,-999.0,76,-99.99,,,0.00,0,weatherlink.com 1.10,2013-03-09 07:20:00,
2013-03-09 02:35:00,35.0,28.0,30.19,WNW,285,1.0,-999.0,76,-99.99,,,0.00,0,weatherlink.com 1.10,2013-03-09 07:35:00,
2013-03-09 02:50:00,34.6,28.0,30.18,WNW,301,2.0,-999.0,77,-99.99,,,0.00,0,weatherlink.com 1.10,2013-03-09 07:50:00,
2013-03-09 03:05:00,34.3,28.0,30.18,North,355,2.0,-999.0,77,-99.99,,,0.00,0,weatherlink.com 1.10,2013-03-09 08:05:00,
2013-03-09 03:20:00,33.9,28.0,30.18,WNW,300,0.0,-999.0,78,-99.99,,,0.00,0,weatherlink.com 1.10,2013-03-09 08:20:00,
2013-03-09 03:35:00,33.5,27.0,30.18,NNW,333,1.0,-999.0,78,-99.99,,,0.00,0,weatherlink.com 1.10,2013-03-09 08:35:00,
2013-03-09 03:50:00,33.3,27.0,30.19,NNW,341,0.0,-999.0,78,-99.99,,,0.00,0,weatherlink.com 1.10,2013-03-09 08:50:00,
2013-03-09 04:05:00,33.1,27.0,30.20,WNW,300,0.0,-999.0,79,-99.99,,,0.00,0,weatherlink.com 1.10,2013-03-09 09:05:00,
2013-03-09 04:20:00,33.0,27.0,30.21,WNW,291,3.0,-999.0,79,-99.99,,,0.00,0,weatherlink.com 1.10,2013-03-09 09:20:00,
2013-03-09 04:35:00,33.0,27.0,30.21,WNW,297,2.0,-999.0,78,-99.99,,,0.00,0,weatherlink.com 1.10,2013-03-09 09:35:00,
2013-03-09 04:50:00,32.8,27.0,30.22,NW,313,2.0,-999.0,79,-99.99,,,0.00,0,weatherlink.com 1.10,2013-03-09 09:50:00,
2013-03-09 05:05:00,33.1,27.0,30.22,NNW,328,4.0,-999.0,77,-99.99,,,0.00,0,weatherlink.com 1.10,2013-03-09 10:05:00,
2013-03-09 05:21:00,33.2,27.0,30.23,NNW,346,2.0,-999.0,77,-99.99,,,0.00,0,weatherlink.com 1.10,2013-03-09 10:21:00,
2013-03-09 05:36:00,32.9,26.0,30.24,North,351,2.0,-999.0,77,-99.99,,,0.00,0,weatherlink.com 1.10,2013-03-09 10:36:00,
2013-03-09 05:51:00,32.7,26.0,30.24,North,355,0.0,-999.0,77,-99.99,,,0.00,0,weatherlink.com 1.10,2013-03-09 10:51:00,
2013-03-09 06:06:00,32.5,26.0,30.25,North,355,2.0,-999.0,77,-99.99,,,0.00,0,weatherlink.com 1.10,2013-03-09 11:06:00,
2013-03-09 06:21:00,32.4,26.0,30.25,North,360,2.0,-999.0,77,-99.99,,,0.00,5,weatherlink.com 1.10,2013-03-09 11:21:00,
2013-03-09 06:36:00,32.1,26.0,30.26,North,360,0.0,-999.0,78,-99.99,,,0.00,14,weatherlink.com 1.10,2013-03-09 11:36:00,
2013-03-09 06:51:00,32.4,26.0,30.26,NNW,331,0.0,-999.0,77,-99.99,,,0.00,25,weatherlink.com 1.10,2013-03-09 11:51:00,
2013-03-09 07:06:00,33.1,26.0,30.26,North,355,1.0,-999.0,75,-99.99,,,0.00,47,weatherlink.com 1.10,2013-03-09 12:06:00,
2013-03-09 07:21:00,33.9,26.0,30.26,NNW,345,2.0,-999.0,74,-99.99,,,0.00,83,weatherlink.com 1.10,2013-03-09 12:21:00,
2013-03-09 07:36:00,34.7,27.0,30.26,NNW,342,2.0,-999.0,72,-99.99,,,0.00,200,weatherlink.com 1.10,2013-03-09 12:36:00,
2013-03-09 07:51:00,35.7,27.0,30.26,NNW,338,0.0,-999.0,70,-99.99,,,0.00,258,weatherlink.com 1.10,2013-03-09 12:51:00,
2013-03-09 08:06:00,36.4,27.0,30.26,SW,225,5.0,-999.0,68,-99.99,,,0.00,308,weatherlink.com 1.10,2013-03-09 13:06:00,
2013-03-09 08:21:00,37.1,27.0,30.26,North,355,3.0,-999.0,68,-99.99,,,0.00,359,weatherlink.com 1.10,2013-03-09 13:21:00,
2013-03-09 08:36:00,37.9,27.0,30.26,NW,323,4.0,-999.0,65,-99.99,,,0.00,404,weatherlink.com 1.10,2013-03-09 13:36:00,
2013-03-09 08:51:00,38.8,28.0,30.27,North,355,2.0,-999.0,65,-99.99,,,0.00,452,weatherlink.com 1.10,2013-03-09 13:51:00,
2013-03-09 09:06:00,39.9,29.0,30.27,NE,34,3.0,-999.0,64,-99.99,,,0.00,496,weatherlink.com 1.10,2013-03-09 14:06:00,
2013-03-09 09:21:00,41.2,29.0,30.27,NNW,341,2.0,-999.0,61,-99.99,,,0.00,534,weatherlink.com 1.10,2013-03-09 14:21:00,
2013-03-09 09:37:00,42.3,29.0,30.27,North,360,4.0,-999.0,59,-99.99,,,0.00,573,weatherlink.com 1.10,2013-03-09 14:37:00,
2013-03-09 09:52:00,43.1,28.0,30.27,North,350,4.0,-999.0,55,-99.99,,,0.00,610,weatherlink.com 1.10,2013-03-09 14:52:00,
2013-03-09 10:07:00,44.2,28.0,30.27,NNW,348,6.0,-999.0,53,-99.99,,,0.00,640,weatherlink.com 1.10,2013-03-09 15:07:00,
2013-03-09 10:22:00,44.8,29.0,30.27,North,355,3.0,-999.0,54,-99.99,,,0.00,673,weatherlink.com 1.10,2013-03-09 15:22:00,
2013-03-09 10:37:00,45.4,28.0,30.27,NNW,341,5.0,-999.0,50,-99.99,,,0.00,698,weatherlink.com 1.10,2013-03-09 15:37:00,
2013-03-09 10:52:00,46.9,28.0,30.27,WNW,284,1.0,-999.0,49,-99.99,,,0.00,722,weatherlink.com 1.10,2013-03-09 15:52:00,
2013-03-09 11:07:00,47.4,27.0,30.26,NNW,342,4.0,-999.0,45,-99.99,,,0.00,742,weatherlink.com 1.10,2013-03-09 16:07:00,
2013-03-09 11:22:00,48.5,30.0,30.27,NNW,346,1.0,-999.0,49,-99.99,,,0.00,756,weatherlink.com 1.10,2013-03-09 16:22:00,
2013-03-09 11:37:00,49.1,27.0,30.27,NE,37,3.0,-999.0,42,-99.99,,,0.00,770,weatherlink.com 1.10,2013-03-09 16:37:00,
2013-03-09 11:52:00,49.7,26.0,30.27,NNW,337,0.0,-999.0,40,-99.99,,,0.00,775,weatherlink.com 1.10,2013-03-09 16:52:00,
2013-03-09 12:07:00,50.6,27.0,30.27,NW,317,3.0,-999.0,41,-99.99,,,0.00,777,weatherlink.com 1.10,2013-03-09 17:07:00,
2013-03-09 12:22:00,51.5,28.0,30.26,North,355,2.0,-999.0,41,-99.99,,,0.00,775,weatherlink.com 1.10,2013-03-09 17:22:00,
2013-03-09 12:37:00,51.4,25.0,30.25,North,355,0.0,-999.0,36,-99.99,,,0.00,770,weatherlink.com 1.10,2013-03-09 17:37:00,
2013-03-09 12:52:00,53.0,24.0,30.24,NNE,14,3.0,-999.0,33,-99.99,,,0.00,765,weatherlink.com 1.10,2013-03-09 17:52:00,
2013-03-09 13:07:00,52.8,26.0,30.24,NNW,344,5.0,-999.0,35,-99.99,,,0.00,752,weatherlink.com 1.10,2013-03-09 18:07:00,
2013-03-09 13:22:00,53.7,24.0,30.22,North,355,5.0,-999.0,32,-99.99,,,0.00,738,weatherlink.com 1.10,2013-03-09 18:22:00,
2013-03-09 13:37:00,54.9,28.0,30.22,NNW,346,4.0,-999.0,35,-99.99,,,0.00,701,weatherlink.com 1.10,2013-03-09 18:37:00,
2013-03-09 13:52:00,54.9,25.0,30.22,NNW,338,2.0,-999.0,31,-99.99,,,0.00,693,weatherlink.com 1.10,2013-03-09 18:52:00,
2013-03-09 14:07:00,55.4,23.0,30.22,NNW,327,3.0,-999.0,28,-99.99,,,0.00,664,weatherlink.com 1.10,2013-03-09 19:07:00,
2013-03-09 14:22:00,55.5,23.0,30.22,NNE,20,2.0,-999.0,28,-99.99,,,0.00,624,weatherlink.com 1.10,2013-03-09 19:22:00,
2013-03-09 14:37:00,55.9,22.0,30.22,North,360,1.0,-999.0,27,-99.99,,,0.00,601,weatherlink.com 1.10,2013-03-09 19:37:00,
2013-03-09 14:52:00,56.1,21.0,30.22,NW,306,3.0,-999.0,25,-99.99,,,0.00,566,weatherlink.com 1.10,2013-03-09 19:52:00,
2013-03-09 15:07:00,56.4,22.0,30.22,NNE,25,3.0,-999.0,26,-99.99,,,0.00,522,weatherlink.com 1.10,2013-03-09 20:07:00,
2013-03-09 15:23:00,56.6,22.0,30.23,North,11,3.0,-999.0,26,-99.99,,,0.00,478,weatherlink.com 1.10,2013-03-09 20:23:00,
2013-03-09 15:38:00,56.8,22.0,30.23,NNW,343,2.0,-999.0,26,-99.99,,,0.00,431,weatherlink.com 1.10,2013-03-09 20:38:00,
2013-03-09 15:53:00,56.7,20.0,30.22,North,355,3.0,-999.0,24,-99.99,,,0.00,387,weatherlink.com 1.10,2013-03-09 20:53:00,
2013-03-09 16:08:00,56.4,20.0,30.23,NNE,25,1.0,-999.0,24,-99.99,,,0.00,336,weatherlink.com 1.10,2013-03-09 21:08:00,
2013-03-09 16:23:00,56.5,20.0,30.23,NNE,20,1.0,-999.0,24,-99.99,,,0.00,285,weatherlink.com 1.10,2013-03-09 21:23:00,
2013-03-09 16:38:00,56.2,20.0,30.23,NE,38,2.0,-999.0,24,-99.99,,,0.00,183,weatherlink.com 1.10,2013-03-09 21:38:00,
2013-03-09 16:53:00,56.0,19.0,30.23,North,355,1.0,-999.0,24,-99.99,,,0.00,120,weatherlink.com 1.10,2013-03-09 21:53:00,
2013-03-09 17:08:00,55.6,22.0,30.24,NE,53,1.0,-999.0,27,-99.99,,,0.00,91,weatherlink.com 1.10,2013-03-09 22:08:00,
2013-03-09 17:23:00,55.1,21.0,30.24,NE,41,0.0,-999.0,27,-99.99,,,0.00,49,weatherlink.com 1.10,2013-03-09 22:23:00,
2013-03-09 17:38:00,54.9,21.0,30.25,NE,39,0.0,-999.0,27,-99.99,,,0.00,19,weatherlink.com 1.10,2013-03-09 22:38:00,
2013-03-09 17:53:00,53.7,22.0,30.26,NE,39,0.0,-999.0,29,-99.99,,,0.00,7,weatherlink.com 1.10,2013-03-09 22:53:00,
2013-03-09 18:08:00,51.9,23.0,30.26,NE,39,0.0,-999.0,32,-99.99,,,0.00,0,weatherlink.com 1.10,2013-03-09 23:08:00,
2013-03-09 18:23:00,49.8,24.0,30.26,NE,39,0.0,-999.0,37,-99.99,,,0.00,0,weatherlink.com 1.10,2013-03-09 23:23:00,
2013-03-09 18:38:00,47.6,25.0,30.27,NE,39,0.0,-999.0,41,-99.99,,,0.00,0,weatherlink.com 1.10,2013-03-09 23:38:00,
2013-03-09 18:53:00,45.8,25.0,30.27,NE,39,0.0,-999.0,45,-99.99,,,0.00,0,weatherlink.com 1.10,2013-03-09 23:53:00,
2013-03-09 19:08:00,44.0,25.0,30.27,NE,39,0.0,-999.0,47,-99.99,,,0.00,0,weatherlink.com 1.10,2013-03-10 00:08:00,
2013-03-09 19:23:00,42.2,26.0,30.27,NE,39,0.0,-999.0,52,-99.99,,,0.00,0,weatherlink.com 1.10,2013-03-10 00:23:00,
2013-03-09 19:38:00,40.5,26.0,30.27,NE,39,0.0,-999.0,56,-99.99,,,0.00,0,weatherlink.com 1.10,2013-03-10 00:38:00,
2013-03-09 19:53:00,39.4,26.0,30.27,NE,39,0.0,-999.0,59,-99.99,,,0.00,0,weatherlink.com 1.10,2013-03-10 00:53:00,
2013-03-09 20:08:00,38.5,26.0,30.28,NE,39,0.0,-999.0,60,-99.99,,,0.00,0,weatherlink.com 1.10,2013-03-10 01:08:00,
2013-03-09 20:23:00,37.8,27.0,30.29,NE,39,0.0,-999.0,65,-99.99,,,0.00,0,weatherlink.com 1.10,2013-03-10 01:23:00,
2013-03-09 20:38:00,36.9,27.0,30.29,NE,39,0.0,-999.0,67,-99.99,,,0.00,0,weatherlink.com 1.10,2013-03-10 01:38:00,
2013-03-09 20:53:00,36.1,27.0,30.29,NE,39,0.0,-999.0,70,-99.99,,,0.00,0,weatherlink.com 1.10,2013-03-10 01:53:00,
2013-03-09 21:08:00,35.4,27.0,30.29,NE,39,0.0,-999.0,70,-99.99,,,0.00,0,weatherlink.com 1.10,2013-03-10 02:08:00,
2013-03-09 21:23:00,34.8,26.0,30.29,NE,39,0.0,-999.0,71,-99.99,,,0.00,0,weatherlink.com 1.10,2013-03-10 02:23:00,
2013-03-09 21:38:00,34.2,27.0,30.29,NE,39,0.0,-999.0,74,-99.99,,,0.00,0,weatherlink.com 1.10,2013-03-10 02:38:00,
2013-03-09 21:53:00,33.6,27.0,30.30,NE,39,0.0,-999.0,77,-99.99,,,0.00,0,weatherlink.com 1.10,2013-03-10 02:53:00,
2013-03-09 22:08:00,33.2,28.0,30.32,NE,39,0.0,-999.0,80,-99.99,,,0.00,0,weatherlink.com 1.10,2013-03-10 03:08:00,
2013-03-09 22:23:00,32.8,27.0,30.32,NE,39,0.0,-999.0,80,-99.99,,,0.00,0,weatherlink.com 1.10,2013-03-10 03:23:00,
2013-03-09 22:38:00,32.3,27.0,30.32,NE,39,0.0,-999.0,81,-99.99,,,0.00,0,weatherlink.com 1.10,2013-03-10 03:38:00,
2013-03-09 22:53:00,31.9,27.0,30.32,NE,39,0.0,-999.0,82,-99.99,,,0.00,0,weatherlink.com 1.10,2013-03-10 03:53:00,
2013-03-09 23:08:00,31.5,27.0,30.32,NE,39,0.0,-999.0,82,-99.99,,,0.00,0,weatherlink.com 1.10,2013-03-10 04:08:00,
2013-03-09 23:23:00,31.3,27.0,30.32,NE,39,0.0,-999.0,83,-99.99,,,0.00,0,weatherlink.com 1.10,2013-03-10 04:23:00,
2013-03-09 23:38:00,30.9,27.0,30.32,NE,39,0.0,-999.0,85,-99.99,,,0.00,0,weatherlink.com 1.10,2013-03-10 04:38:00,
2013-03-09 23:53:00,30.4,26.0,30.33,NE,39,0.0,-999.0,85,-99.99,,,0.00,0,weatherlink.com 1.10,2013-03-10 04:53:00,